Location: Newark
(13.6797°N, 8.5297°E)
Time: 15:56:18
(UTC+00:00)

N. Korean satellite - Visible Passes

Search period start: 05 December 2019 00:00
Search period end: 15 December 2019 00:00
Orbit: 456 x 506 km, 97.2° (Epoch: 05 December)

Date Brightness Start Highest point End Pass type
(mag) Time Alt. Az. Time Alt. Az. Time Alt. Az.
05 Dec 10.0 04:12:57 10° ENE 04:14:13 12° E 04:15:30 10° ESE visible
05 Dec 10.0 17:39:48 10° SW 17:41:44 14° W 17:43:41 10° WNW visible
07 Dec 7.1 04:53:17 10° NNE 04:56:43 61° E 05:00:06 10° S visible
08 Dec 9.2 04:28:35 10° NE 04:31:18 22° E 04:34:00 10° SSE visible
09 Dec 9.8 17:30:47 10° SW 17:33:23 18° W 17:36:01 10° NW visible
10 Dec 6.4 05:10:20 10° N 05:13:44 63° WNW 05:17:06 10° SSW visible
11 Dec 7.8 04:45:04 10° NNE 04:48:20 42° E 04:51:35 10° S visible
12 Dec 9.7 04:20:42 10° ENE 04:22:54 16° E 04:25:05 10° SE visible
13 Dec 9.4 17:21:59 10° SSW 17:25:02 24° W 17:28:04 10° NW visible
14 Dec 6.4 05:01:54 10° N 05:05:20 90° WNW 05:08:44 10° S visible
